Regional Weather Roundup
Issued by NWS

Home | Current Version | Previous Version | Graphics & Text | Print | Product List | Glossary On
Versions: 1 2 3 4 5 6 7 8 9 10 11 12 13 14 15 16 17 18 19 20 21 22 23 24 25 26 27 28 29 30 31 32 33 34 35 36 37 38 39 40 41 42 43 44 45 46 47 48 49 50
000
ASUS44 KMEG 292210
RWRTN
TENNESSEE HOURLY STATE WEATHER ROUNDUP
NATIONAL WEATHER SERVICE MEMPHIS TN
500 PM CDT FRI MAY 29 2015

TNZ002-004-019-021-049-052-054-088>092-292300-
WEST TENNESSEE

CITY           SKY/WX    TMP DP  RH WIND       PRES   REMARKS
MEMPHIS INTL   LGT RAIN  75  68  78 S6        30.02S
NWS MEMPHIS      N/A     74 N/A N/A MISG        N/A
JACKSON        MOSUNNY   82  68  62 SE6       30.03F
DYERSBURG      PTSUNNY   82  63  51 SW7       30.01F
PARIS          MOSUNNY   81  68  65 S9        30.04S
LEXINGTON      MOSUNNY   81  66  61 S8        30.04F
$$

TNZ008-025-027-028-033-062-065-066-292300-
NORTH MIDDLE TENNESSEE

CITY           SKY/WX    TMP DP  RH WIND       PRES   REMARKS
NASHVILLE      MOSUNNY   82  67  60 S13       30.07F
CLARKSVILLE    PTSUNNY   82  67  60 S7        30.04F
SMYRNA         MOSUNNY   82  68  62 S10G16    30.08F
COOKEVILLE     MOSUNNY   75  70  83 VRB6      30.13F
CROSSVILLE     PTSUNNY   70  65  84 VRB6      30.19F
$$

TNZ061-075-076-078-094-096-097-292300-
SOUTH MIDDLE TENNESSEE

CITY           SKY/WX    TMP DP  RH WIND       PRES   REMARKS
FAYETTEVILLE   SUNNY    N/A N/A N/A MISG      30.11F
TULLAHOMA      MOSUNNY   79  64  61 S7        30.13F
WINCHESTER     MOSUNNY   79  68  69 S8        30.13F
MCMINNVILLE    SUNNY     81  68  65 S6        30.14S
COLUMBIA       MOSUNNY   82  70  65 SW3       30.06F
SHELBYVILLE    MOSUNNY   81  70  69 SE9       30.11S
$$

TNZ017-018-042-046-047-292300-
NORTHEAST TENNESSEE

CITY           SKY/WX    TMP DP  RH WIND       PRES   REMARKS
TRI CITIES     LGT RAIN  79  62  56 S10       30.17F
ELIZABETHTON   CLEAR     73  66  78 E5        30.18F
$$

TNZ012-013-036-069-073-074-292300-
CENTRAL EAST TENNESSEE

CITY           SKY/WX    TMP DP  RH WIND       PRES   REMARKS
KNOXVILLE      PTSUNNY   75  67  76 SE5       30.14F
OAK RIDGE      MOSUNNY   84  58  40 S6        30.14F
GATLINBURG     CLEAR     73  66  78 VRB3      30.14F
MORRISTOWN     CLEAR     75  70  83 W8        30.18R
$$

TNZ083-085-099-292300-
SOUTHEAST TENNESSEE

CITY           SKY/WX    TMP DP  RH WIND       PRES   REMARKS
CHATTANOOGA    PTSUNNY   75  68  78 N5        30.14F
$$

SKY/WX REPORTED AS FAIR MEANS FEW OR NO CLOUDS BELOW
12 THOUSAND FEET.




USA.gov is the U.S. government's official web portal to all federal, state and local government web resources and services.